sat.trackr.live / text

‹ back to catalog

STARLINK-36885

NORAD 68049 · 2026-041K

PAYLOAD ACTIVE UNKNOWN

§ Identity

Operator
Country
US
Launch date
2026-03-02
Launch site
AFETR
Launch vehicle
Mass (kg)
RCS (m²)

Purposes: comms

External: N2YO · Heavens-Above · Gunter

§ Orbital elements

Epoch: 2026-09-19T11:30:05.757120Z

Period
93.85 min
Inclination
53.1576°
Eccentricity
0.0001482
Mean motion
15.34400310 rev/d
Perigee alt
461.7 km
Apogee alt
463.7 km
Semi-major
6,840.8 km
B*
3.6231e-4
RAAN
224.4080°
Arg perigee
100.4413°
Mean anomaly
259.6756°
Rev number
3,113

§ Raw data

STARLINK-368851 68049U 26041K   26262.47923330  .00011884  00000+0  36231-3 0  99982 68049  53.1576 224.4080 0001482 100.4413 259.6756 15.34400310 31133

JSON: /api/v1/satellites/68049 · /tle

For live sub-satellite position, see the globe view (requires WebGL).

§ Visibility from observer

Set your observer location to see the next 7 days of passes ≥ 10°. The values pass through the URL so the page stays shareable.

No JS? Fill the form by hand. The geolocation button needs JavaScript.